Weather in Paysandu

Uruguay     32°18′43″S   58°04′17″W
temp.,
°C
wind,
m/s
gust,
m/s
humid.,
%
clouds,
%
prec.,
mm/h
press.,
hPa
HPBL,
m
9 august, tue
tue900:00+11ese3977100 0.0 1027443
03:00+9sse3681100 0.3 1028260
06:00+8se2893100 2.3 1028324
09:00+8sse4886100 2.8 1030348
12:00+12se576753 0.0 1031975
15:00+14se675715 0.0 10291409
18:00+11sse34730 0.0 102963
21:00+8se35770 0.0 103070
10 august, wed
wed1000:00+7se47810 0.0 1030113
03:00+6ese36910 0.0 1029105
06:00+5e36940 0.0 1028111
09:00+7e24823 0.0 1029146
12:00+12ene446183 0.0 1028737
15:00+14ne445468 0.0 1026976
18:00+11ene357486 0.0 102474
21:00+7ne468199 0.0 1025101
11 august, thu
thu1100:00+6ne488493 0.0 1025123
03:00+6ne37920 0.0 1024115
06:00+5ne36940 0.0 1024100
09:00+8nne47870 0.0 1025200
12:00+15n57680 0.0 1025782
15:00+16n56620 0.0 10221130
18:00+13nne34790 0.0 102066
21:00+10ne46915 0.0 102184
12 august, fri
fri1200:00+9ne4993100 0.0 1020163
03:00+9ne41295100 0.0 1019245
06:00+8ne41096100 0.0 1018219
09:00+11ne41189100 0.0 1018290
12:00+17nne6871100 0.0 1017646
15:00+19n6767100 0.0 1014995
18:00+16nne358562 0.0 101494
21:00+13ne47930 0.0 1016110
13 august, sat
sat1300:00+12nne38945 0.0 1016143
03:00+12nne33940 0.0 101642
06:00+11ne22930 0.0 101619
09:00+13ne34880 0.0 1017125
12:00+19ene33680 0.0 1018604
15:00+21ene44610 0.0 10151019
18:00+18ene35800 0.0 101468
21:00+15ene49920 0.0 1015159